Weather History for Fort Bragg, NC

Change the Weather History Date:

Saturday, March 30, 2013

  Actual Average Record
Temperature  
Mean Temperature 56 °F -  
Max Temperature 68 °F 67 °F 84 °F (1998)
Min Temperature 45 °F 46 °F 37 °F (2006)
Degree Days  
Heating Degree Days 8    
Growing Degree Days 6 (Base 50)    
Moisture  
Dew Point 41 °F    
Average Humidity 61    
Maximum Humidity 87    
Minimum Humidity 33    
Precipitation  
Precipitation 0.00 in - - ()
Sea Level Pressure  
Sea Level Pressure 30.18 in    
Wind  
Wind Speed 4 mph (SW)    
Max Wind Speed 9 mph    
Max Gust Speed -    
Visibility 10 miles    
Events Rain    
Averages and records for this station are not official NWS values.
T = Trace of Precipitation, MM = Missing Value Source: NWS Daily Summary

Daily Weather History Graph

Daily Weather History Graph

Search for Another Location

Airport:

Trip Planner

Search our weather history database for the weather conditions in past years. The results will help you decide how hot, cold, wet, or windy it might be!

Date:

Astronomy

Mar. 30, 2013 Rise Set
Actual Time 7:04 AM EDT 7:35 PM EDT
Civil Twilight 6:39 AM EDT 8:01 PM EDT
Nautical Twilight 6:09 AM EDT 8:31 PM EDT
Astronomical Twilight 5:39 AM EDT 9:01 PM EDT
Moon 11:31 PM EDT (3/30) 9:07 AM EDT (3/30)
Length of Visible Light 13h 21m
Length of Day
12h 30m
Waning Gibbous, 86% of the Moon is Illuminated
Mar 30
Waning Gibbous
Apr 3
Last Quarter
Apr 10
New
Apr 18
First Quarter
Apr 25
Full

Hourly Weather History & Observations

Time (EDT) Temp. Windchill Dew Point Humidity Pressure Visibility Wind Dir Wind Speed Gust Speed Precip Events Conditions
12:58 AM 46.0 °F - 37.6 °F 72% 30.21 in 10.0 mi Calm Calm - N/A   Partly Cloudy
1:58 AM 45.5 °F - 37.8 °F 74% 30.21 in 10.0 mi Calm Calm - N/A   Scattered Clouds
2:58 AM 45.7 °F 44.4 °F 33.3 °F 62% 30.20 in 10.0 mi WSW 3.5 mph - N/A   Overcast
3:58 AM 49.1 °F - 31.6 °F 51% 30.20 in 10.0 mi WSW 5.8 mph - N/A   Overcast
4:58 AM 49.8 °F - 32.7 °F 52% 30.20 in 10.0 mi WSW 6.9 mph - N/A   Overcast
5:58 AM 48.9 °F - 34.9 °F 58% 30.21 in 10.0 mi West 6.9 mph - N/A   Mostly Cloudy
6:58 AM 49.6 °F - 38.3 °F 65% 30.23 in 10.0 mi West 8.1 mph - N/A   Overcast
7:09 AM 50.0 °F - 39.2 °F 66% 30.22 in 10.0 mi West 9.2 mph - N/A   Light Drizzle
7:18 AM 50.0 °F - 39.2 °F 66% 30.23 in 10.0 mi West 9.2 mph - N/A   Mostly Cloudy
7:35 AM 50.0 °F - 41.0 °F 71% 30.23 in 10.0 mi SW 4.6 mph - N/A   Light Drizzle
7:58 AM 48.6 °F - 41.7 °F 77% 30.25 in 10.0 mi West 4.6 mph - 0.00 in   Light Drizzle
8:05 AM 48.2 °F - 42.8 °F 82% 30.24 in 10.0 mi SW 5.8 mph - N/A   Overcast
8:23 AM 48.2 °F - 42.8 °F 82% 30.25 in 10.0 mi WSW 8.1 mph - N/A Rain Light Rain
8:58 AM 48.2 °F - 44.6 °F 87% 30.25 in 10.0 mi Calm Calm - 0.00 in   Light Drizzle
9:00 AM 48.2 °F - 44.6 °F 87% 30.24 in 10.0 mi NNW 1.2 mph - N/A   Overcast
9:58 AM 51.1 °F - 46.6 °F 85% 30.25 in 10.0 mi South 3.5 mph - 0.00 in   Scattered Clouds
10:58 AM 55.9 °F - 44.2 °F 65% 30.23 in 10.0 mi Variable 2.3 mph - N/A   Scattered Clouds
11:31 AM 59.0 °F - 42.8 °F 55% 30.21 in 10.0 mi Variable 2.3 mph - N/A Rain Light Rain
11:36 AM 60.8 °F - 41.0 °F 48% 30.21 in 10.0 mi Variable 3.5 mph - N/A   Clear
11:58 AM 62.4 °F - 39.9 °F 44% 30.21 in 10.0 mi West 5.8 mph - 0.00 in   Clear
12:58 PM 62.8 °F - 40.3 °F 44% 30.19 in 10.0 mi WSW 4.6 mph - N/A   Partly Cloudy
1:58 PM 66.2 °F - 38.7 °F 36% 30.16 in 10.0 mi Variable 2.3 mph - N/A   Partly Cloudy
2:58 PM 68.0 °F - 37.4 °F 33% 30.13 in 10.0 mi SW 8.1 mph - N/A   Mostly Cloudy
3:58 PM 66.0 °F - 38.8 °F 37% 30.11 in 10.0 mi South 6.9 mph - N/A   Scattered Clouds
4:58 PM 65.8 °F - 41.0 °F 40% 30.10 in 10.0 mi SW 6.9 mph - N/A   Scattered Clouds
5:58 PM 64.8 °F - 42.1 °F 44% 30.10 in 10.0 mi South 9.2 mph - N/A   Clear
6:59 PM 63.0 °F - 42.6 °F 47% 30.11 in 10.0 mi SSW 5.8 mph - N/A   Clear
7:58 PM 60.4 °F - 43.5 °F 54% 30.12 in 10.0 mi South 3.5 mph - N/A   Clear
8:58 PM 57.9 °F - 44.8 °F 62% 30.13 in 10.0 mi SSE 2.3 mph - N/A   Scattered Clouds
9:23 PM 57.2 °F - 44.6 °F 63% 30.12 in 8.0 mi ESE 1.2 mph - N/A   Light Drizzle
9:33 PM 57.2 °F - 44.6 °F 63% 30.12 in 7.0 mi SSE 3.5 mph - N/A   Partly Cloudy
9:58 PM 56.8 °F - 45.3 °F 65% 30.13 in 8.0 mi SSE 5.8 mph - 0.00 in   Partly Cloudy
10:58 PM 54.7 °F - 45.3 °F 71% 30.13 in 10.0 mi SSE 4.6 mph - N/A   Clear
11:58 PM 53.4 °F - 45.7 °F 75% 30.12 in 10.0 mi SSE 4.6 mph - N/A   Partly Cloudy